RH
17 21 24 25 37 44 42 41 32 34 34 34 39 34 37 43 47 47 49 53 55 57 50 46 41 43 44 51 60 66 66 65 57 51 50 46 47 50 57 64 65 69 69 72
13 16 21 24 32 41 44 43 34 33 32 34 34 34 34 36 38 42 44 45 51 54 55 48 45 40 41 42 47 57 64 65 65 54 52 54 55 57 64 66 70 80 82 70
10 12 17 23 27 39 43 42 33 32 27 30 34 34 34 33 34 37 39 41 44 50 53 54 49 43 39 39 40 42 51 62 62 58 58 62 62 64 66 67 75 78 78 68
9 11 14 18 23 33 37 39 33 31 24 22 26 29 31 29 30 33 34 35 39 45 51 53 50 48 39 35 38 40 43 47 53 59 62 65 67 68 68 68 75 69 66 67
8 10 13 14 16 22 30 28 34 28 23 23 26 27 21 26 20 22 26 30 36 40 47 53 50 49 42 39 38 41 40 41 42 44 50 55 56 54 53 53 56 68 69 65
9 9 11 12 12 15 17 18 21 25 24 22 23 25 20 20 21 20 25 28 33 39 43 49 51 51 46 39 41 40 42 44 43 40 41 43 45 46 50 50 54 64 65 71
9 9 9 9 10 11 13 13 18 24 23 21 22 26 18 19 20 21 24 26 34 38 42 46 51 52 50 43 43 43 44 43 43 43 43 43 45 47 48 49 52 63 59 63
9 10 9 9 10 12 14 15 18 24 18 16 18 18 13 18 20 25 26 27 31 37 43 45 50 54 57 52 46 48 52 54 50 45 47 47 49 51 50 51 54 64 71 69
9 10 10 12 13 15 17 18 15 14 15 13 11 11 15 18 24 27 25 28 32 37 42 43 44 51 53 56 48 50 52 54 57 59 59 54 50 53 57 61 64 71 77 78
10 12 12 14 15 17 17 14 14 14 15 14 11 17 19 24 27 26 27 30 32 38 43 41 42 48 52 54 52 49 53 54 57 60 62 63 60 61 64 65 70 78 80 80
12 12 12 12 13 14 14 13 13 13 13 13 14 15 18 21 25 25 28 29 30 34 40 38 40 44 44 52 49 47 54 55 56 56 58 60 55 60 65 69 69 66 68 78
13 13 15 16 17 15 14 14 14 15 17 13 14 14 19 23 26 26 25 25 29 33 36 40 41 40 41 45 49 49 52 52 52 51 54 53 51 58 64 68 68 68 67 63
15 15 17 17 18 19 19 17 16 15 16 16 12 13 18 25 24 25 24 26 26 30 37 38 37 41 43 45 51 52 51 53 54 54 53 52 41 46 74 66 67 68 70 64
15 16 17 18 20 22 23 19 18 16 16 15 14 14 16 24 27 30 31 30 30 33 36 35 38 40 44 46 48 51 53 54 56 56 56 63 60 51 61 61 65 62 61 59
16 20 21 22 23 23 23 22 18 19 20 20 25 27 29 32 34 32 34 36 35 35 36 37 40 44 44 43 46 49 54 54 55 56 60 57 41 46 58 59 64 64 61 54
20 23 25 28 29 30 32 30 25 26 26 33 33 33 36 35 36 34 32 37 40 38 40 38 43 48 49 47 47 51 53 55 53 70 50 54 48 42 57 56 59 60 58 51
26 26 29 32 29 30 30 34 35 37 36 36 34 35 39 40 39 34 32 37 39 39 38 39 40 45 50 51 48 49 51 49 65 56 57 50 51 49 50 53 55 55 58 54
31 31 32 32 32 32 29 33 35 38 41 42 42 43 44 41 38 37 35 38 40 40 38 38 39 39 43 49 53 53 51 53 53 55 59 51 56 52 49 52 54 55 59 57
36 37 38 35 33 34 33 35 35 34 34 36 37 36 36 39 39 40 38 37 37 37 40 40 38 40 40 41 44 47 52 50 52 55 62 57 60 58 57 51 51 56 58 62
41 38 36 38 37 37 32 36 37 38 34 35 37 37 37 38 37 37 34 33 33 35 37 39 41 40 38 39 43 46 49 52 54 60 64 64 67 61 63 58 54 56 62 64
47 44 39 40 37 34 32 36 39 42 35 35 40 39 38 36 36 36 37 36 36 33 30 28 30 36 40 41 43 43 48 50 51 53 63 70 71 74 83 79 76 66 67 68
41 45 43 42 40 39 37 39 41 41 41 42 42 41 41 43 41 42 40 37 34 31 30 26 24 26 31 36 38 41 50 50 51 48 54 57 63 71 75 97 95 89 77 74
34 33 35 35 36 38 39 39 40 39 42 44 44 42 45 46 44 41 37 33 30 27 26 25 27 27 32 38 41 42 47 50 53 56 57 63 66 69 70 62 82 99 92 90
35 34 35 37 37 38 38 39 40 42 43 43 44 47 45 44 41 38 32 28 28 26 28 29 29 29 28 28 32 35 40 44 49 52 59 60 68 71 64 59 71 69 89 97
35 37 39 39 39 41 40 41 42 42 43 45 45 43 42 40 37 32 29 28 28 27 28 31 33 33 31 31 34 32 32 34 41 47 57 64 78 76 75 73 70 76 79 79
36 36 37 38 38 41 43 44 44 45 45 43 41 41 39 36 30 28 28 31 30 27 28 28 34 34 37 38 38 42 40 44 53 60 65 75 80 76 76 78 80 82 82 89